NDF6026 EDDH-EDDH

Flight info

Callsign NDF6026
Flight time 0h 14m
Altitude 38000
Route WSN5G/33 WSN N125 ONTAZ DCT NIK/N0474F390 DCT KOVIN DCT NIDUV DCT KIHVI UN872 ERIGA UN741 AZFIC DCT LOTEE DCT PINEK DCT LIDRO LIDRO1P
Aircraft A333/H-SDE3GHIJ2J3J5M1RVWXY/LB2D1

Departure

Time 2026-05-05 14:11
Airport Hamburg Helmut Schmidt Airport (EDDH)

Arrival

Time 2026-05-05 14:26
Airport Hamburg Helmut Schmidt Airport (EDDH)
Time Latitude Longitude Altitude Speed Heading
2026-05-05 14:11 53.67659 9.70086 8012 ft 278 kts 252°
2026-05-05 14:11 53.67046 9.66970 7835 ft 275 kts 252°
2026-05-05 14:11 53.66454 9.63967 7937 ft 272 kts 252°
2026-05-05 14:12 53.65858 9.60936 7901 ft 272 kts 252°
2026-05-05 14:12 53.65266 9.57930 7905 ft 272 kts 252°
2026-05-05 14:12 53.64670 9.54904 7897 ft 272 kts 253°
2026-05-05 14:12 53.64071 9.51872 7888 ft 270 kts 252°
2026-05-05 14:13 53.63482 9.48887 7615 ft 270 kts 253°
2026-05-05 14:13 53.62887 9.45887 7208 ft 272 kts 253°
2026-05-05 14:13 53.62291 9.42886 6885 ft 272 kts 253°
2026-05-05 14:13 53.61690 9.39868 6569 ft 271 kts 253°
2026-05-05 14:14 53.61098 9.36912 6260 ft 270 kts 253°
2026-05-05 14:14 53.60466 9.33944 5904 ft 270 kts 245°
2026-05-05 14:14 53.59270 9.31522 5616 ft 269 kts 214°
2026-05-05 14:14 53.57597 9.30444 5633 ft 256 kts 185°
2026-05-05 14:15 53.55889 9.30856 5585 ft 245 kts 157°
2026-05-05 14:15 53.54358 9.32043 5321 ft 240 kts 154°
2026-05-05 14:15 53.52856 9.33232 4886 ft 241 kts 154°
2026-05-05 14:15 53.51347 9.34407 4488 ft 240 kts 154°
2026-05-05 14:16 53.49828 9.35562 4090 ft 240 kts 154°
2026-05-05 14:16 53.48314 9.36696 3965 ft 237 kts 154°
2026-05-05 14:16 53.46804 9.37825 3999 ft 238 kts 154°
2026-05-05 14:16 53.45277 9.38964 3970 ft 239 kts 154°
2026-05-05 14:17 53.43854 9.40293 3961 ft 237 kts 134°
2026-05-05 14:17 53.42984 9.42561 3985 ft 231 kts 102°
2026-05-05 14:17 53.42738 9.45203 3993 ft 230 kts 94°
2026-05-05 14:17 53.42560 9.47833 3967 ft 229 kts 94°
2026-05-05 14:18 53.42379 9.50510 3974 ft 229 kts 94°
2026-05-05 14:18 53.42248 9.53133 3971 ft 228 kts 86°
2026-05-05 14:18 53.42342 9.55792 3995 ft 229 kts 83°
2026-05-05 14:18 53.42852 9.58255 3976 ft 225 kts 50°
2026-05-05 14:19 53.43856 9.60249 3999 ft 225 kts 49°
2026-05-05 14:19 53.44856 9.62269 3972 ft 224 kts 49°
2026-05-05 14:19 53.45854 9.64273 3981 ft 224 kts 49°
2026-05-05 14:19 53.46816 9.66220 3948 ft 210 kts 50°
2026-05-05 14:20 53.47707 9.68047 3892 ft 195 kts 50°
2026-05-05 14:20 53.48541 9.69735 3830 ft 181 kts 49°
2026-05-05 14:20 53.49327 9.71316 3743 ft 166 kts 49°
2026-05-05 14:20 53.50039 9.72746 3374 ft 162 kts 49°
2026-05-05 14:21 53.50756 9.74178 2961 ft 161 kts 50°
2026-05-05 14:21 53.51472 9.75613 3019 ft 163 kts 49°
2026-05-05 14:21 53.52210 9.77089 2982 ft 165 kts 49°
2026-05-05 14:21 53.52958 9.78585 2816 ft 167 kts 49°
2026-05-05 14:22 53.53692 9.80050 2605 ft 165 kts 50°
2026-05-05 14:22 53.54434 9.81536 2390 ft 164 kts 49°
2026-05-05 14:22 53.55159 9.82988 2172 ft 162 kts 50°
2026-05-05 14:22 53.55850 9.84372 1963 ft 143 kts 49°
2026-05-05 14:23 53.56468 9.85613 1762 ft 136 kts 50°
2026-05-05 14:23 53.57064 9.86810 1582 ft 134 kts 49°
2026-05-05 14:23 53.57667 9.88019 1407 ft 134 kts 51°
2026-05-05 14:23 53.58262 9.89217 1231 ft 135 kts 50°
2026-05-05 14:24 53.58872 9.90429 1057 ft 135 kts 51°
2026-05-05 14:24 53.59472 9.91632 884 ft 135 kts 50°
2026-05-05 14:24 53.60058 9.92876 712 ft 136 kts 50°
2026-05-05 14:24 53.60680 9.94082 519 ft 138 kts 47°
2026-05-05 14:25 53.61300 9.95304 315 ft 137 kts 52°
2026-05-05 14:25 53.61916 9.96561 132 ft 139 kts 51°
2026-05-05 14:25 53.62511 9.97757 67 ft 120 kts 51°
2026-05-05 14:25 53.62942 9.98624 66 ft 70 kts 50°
2026-05-05 14:26 53.63155 9.99055 66 ft 33 kts 50°
2026-05-05 14:26 53.63286 9.99363 66 ft 27 kts 76°
2026-05-05 14:26 53.63280 9.99621 66 ft 9 kts 100°
2026-05-05 14:26 53.63279 9.99626 66 ft 0 kts 100°
2026-05-05 14:27 53.63278 9.99641 66 ft 2 kts 100°
2026-05-05 14:27 53.63271 9.99688 66 ft 5 kts 113°
2026-05-05 14:27 53.63238 9.99743 66 ft 7 kts 146°
2026-05-05 14:27 53.63184 9.99795 66 ft 10 kts 152°
2026-05-05 14:28 53.63113 9.99859 66 ft 12 kts 153°
2026-05-05 14:28 53.63026 9.99934 66 ft 15 kts 153°
2026-05-05 14:28 53.62951 10.00032 66 ft 12 kts 103°
2026-05-05 14:28 53.62991 10.00137 66 ft 8 kts 33°
2026-05-05 14:29 53.63042 10.00191 66 ft 7 kts 33°
2026-05-05 14:29 53.63044 10.00250 66 ft 5 kts 109°
2026-05-05 14:29 53.63026 10.00305 66 ft 5 kts 122°
2026-05-05 14:29 53.63014 10.00336 66 ft 1 kts 122°
2026-05-05 14:30 53.63013 10.00339 66 ft 0 kts 122°